Location: �bnet
(46.9957°N, 8.4908°E)
Time: 10:01:35
(UTC+00:00)

Okean 2 Rocket - Pass Details

Date: 11 May 2021
Orbit: 616 x 641 km, 82.5° (Epoch: 13 June)

Event Time Altitude Azimuth Distance (km) Brightness Sun altitude
Rises 23:17:10 0° 357° (N) 2,903 7.9 -24.9°
Reaches altitude 10° 23:19:34 10° 6° (N) 1,991 6.7 -24.9°
Maximum altitude 23:23:38 36° 74° (ENE) 978 4.1 -24.9°
Enters shadow 23:23:57 36° 84° (E) 986 4.1 -24.9°
